Weather History for KTDZ - January, 2013

Change the Weather History Date:

Sunday, January 20, 2013

  Actual Average (KTOL) Record (KTOL)
Temperature  
Mean Temperature 31 °F 25 °F  
Max Temperature 43 °F 32 °F 67 °F (1906)
Min Temperature 19 °F 18 °F -17 °F (1985)
Degree Days  
Heating Degree Days 34 40  
Month to date heating degree days 791  
Since 1 July heating degree days 3116  
Cooling Degree Days 0 0  
Month to date cooling degree days 0  
Year to date cooling degree days 0  
Moisture  
Dew Point 11 °F    
Average Humidity 55    
Maximum Humidity 70    
Minimum Humidity 47    
Precipitation  
Precipitation 0.00 in 0.06 in - ()
Month to date precipitation 1.38  
Year to date precipitation 1.38  
Snow  
Snow 0.00 in 0.40 in - ()
Month to date snowfall 7.3  
Since 1 July snowfall 16.8  
Snow Depth -    
Sea Level Pressure  
Sea Level Pressure 30.08 in    
Wind  
Wind Speed 23 mph (WNW)    
Max Wind Speed 37 mph    
Max Gust Speed 53 mph    
Visibility 10 miles    
Events      
T = Trace of Precipitation, MM = Missing Value Source: NWS Daily Summary

Daily Weather History Graph

Daily Weather History Graph

Search for Another Location

Airport or City:

Trip Planner

Search our weather history database for the weather conditions in past years. The results will help you decide how hot, cold, wet, or windy it might be!

Date:

Astronomy

Jan. 20, 2013 Rise Set
Actual Time 7:55 AM EST 5:35 PM EST
Civil Twilight 7:25 AM EST 6:05 PM EST
Nautical Twilight 6:51 AM EST 6:39 PM EST
Astronomical Twilight 6:18 AM EST 7:12 PM EST
Moon 12:35 PM EST (1/20) 2:26 AM EST (1/20)
Length of Visible Light 10h 40m
Length of Day
9h 39m
Waxing Gibbous, 66% of the Moon is Illuminated
Jan 20
Waxing Gibbous
Jan 26
Full
Feb 3
Last Quarter
Feb 10
New
Feb 17
First Quarter

Hourly Weather History & Observations

Time (EST) Temp. Windchill Dew Point Humidity Pressure Visibility Wind Dir Wind Speed Gust Speed Precip Events Conditions
12:53 AM 42.1 °F 32.8 °F 33.1 °F 70% 29.67 in 10.0 mi WSW 21.9 mph 31.1 mph N/A   Clear
1:53 AM 43.0 °F 32.2 °F 30.9 °F 62% 29.68 in 10.0 mi WSW 32.2 mph 39.1 mph N/A   Scattered Clouds
2:53 AM 39.9 °F 28.2 °F 21.0 °F 47% 29.73 in 10.0 mi West 31.1 mph 47.2 mph N/A   Partly Cloudy
3:53 AM 34.0 °F 19.1 °F 16.0 °F 48% 29.81 in 10.0 mi West 36.8 mph 52.9 mph N/A   Partly Cloudy
4:53 AM 28.9 °F 13.2 °F 12.9 °F 51% 29.88 in 10.0 mi West 31.1 mph 43.7 mph N/A   Clear
5:53 AM 28.0 °F 12.8 °F 12.9 °F 53% 29.93 in 10.0 mi West 27.6 mph 41.4 mph N/A   Mostly Cloudy
6:53 AM 25.0 °F 10.2 °F 12.9 °F 60% 30.01 in 10.0 mi WNW 21.9 mph 31.1 mph 0.00 in   Mostly Cloudy
7:53 AM 21.9 °F 4.5 °F 10.0 °F 60% 30.06 in 10.0 mi WNW 27.6 mph 36.8 mph N/A   Mostly Cloudy
8:11 AM 21.2 °F 3.5 °F 8.6 °F 58% 30.05 in 10.0 mi WNW 27.6 mph 40.3 mph N/A   Scattered Clouds
8:53 AM 21.0 °F 3.0 °F 7.0 °F 55% 30.12 in 10.0 mi WNW 28.8 mph 39.1 mph N/A   Mostly Cloudy
9:53 AM 21.9 °F 7.8 °F 7.0 °F 53% 30.17 in 10.0 mi NW 17.3 mph 29.9 mph N/A   Mostly Cloudy
10:53 AM 24.1 °F 11.0 °F 7.0 °F 48% 30.19 in 10.0 mi WNW 16.1 mph 24.2 mph N/A   Overcast
11:53 AM 24.1 °F 10.6 °F 8.1 °F 51% 30.19 in 10.0 mi WNW 17.3 mph - N/A   Mostly Cloudy
12:53 PM 26.1 °F 12.3 °F 8.1 °F 47% 30.18 in 10.0 mi WNW 19.6 mph - N/A   Partly Cloudy
1:53 PM 26.1 °F 14.5 °F 9.0 °F 49% 30.16 in 10.0 mi West 13.8 mph - N/A   Mostly Cloudy
2:53 PM 25.0 °F 11.3 °F 9.0 °F 51% 30.18 in 10.0 mi West 18.4 mph 24.2 mph N/A   Overcast
3:53 PM 24.1 °F 12.0 °F 9.0 °F 53% 30.19 in 10.0 mi West 13.8 mph - N/A   Mostly Cloudy
4:53 PM 23.0 °F 9.6 °F 9.0 °F 55% 30.19 in 10.0 mi West 16.1 mph - N/A   Overcast
5:53 PM 23.0 °F 10.1 °F 9.0 °F 55% 30.21 in 10.0 mi West 15.0 mph - N/A   Overcast
6:53 PM 21.9 °F 9.8 °F 8.1 °F 55% 30.22 in 10.0 mi West 12.7 mph - N/A   Mostly Cloudy
7:53 PM 21.0 °F 7.1 °F 7.0 °F 55% 30.23 in 10.0 mi West 16.1 mph - N/A   Overcast
8:53 PM 21.0 °F 7.1 °F 7.0 °F 55% 30.22 in 10.0 mi WNW 16.1 mph - N/A   Overcast
9:53 PM 19.9 °F 6.2 °F 6.1 °F 55% 30.22 in 10.0 mi West 15.0 mph - N/A   Overcast
10:53 PM 19.9 °F 9.3 °F 8.1 °F 60% 30.21 in 10.0 mi WNW 9.2 mph - N/A   Overcast
11:53 PM 19.9 °F 9.3 °F 7.0 °F 57% 30.19 in 10.0 mi WNW 9.2 mph - N/A   Overcast